Location: Winthrop
(48.4780°N, 120.1850°W)
Time: 18:59:21
(UTC-07:00)

CAS-4B - Pass Details

Date: 30 May 2022
Orbit: 523 x 537 km, 43.0° (Epoch: 29 June)

Event Time Altitude Azimuth Distance (km) Brightness Sun altitude
Rises 21:52:59 0° 266° (W) 2,659 ? -8.3°
Reaches altitude 10° 21:56:20 10° 237° (WSW) 1,762 ? -8.7°
Maximum altitude 21:58:06 13° 211° (SSW) 1,601 ? -8.9°
Drops below altitude 10° 21:59:51 10° 185° (S) 1,755 ? -9.1°
Enters shadow 22:00:47 - 174° (S) 1,949 ? -9.2°
